This is the latest recevied weather packets stored in our database for station/object AI4QX-5. If no packets are shown the sender has not sent any weather packets the latest 10 day(s).
| Time | Temp. | Humidity | Pressure | Rain* | Wind** | Luminosity | Snow |
|---|---|---|---|---|---|---|---|
| 1777502400 | 27.78° C | 32% | 1010.1 hPa | 0 mm | - | - | - |
| 1777501800 | 27.78° C | 32% | 1010.2 hPa | 0 mm | - | - | - |
| 1777501200 | 28.33° C | 30% | 1010.3 hPa | 0 mm | - | - | - |
| 1777500600 | 29.44° C | 27% | 1010.2 hPa | 0 mm | - | - | - |
| 1777500000 | 29.44° C | 27% | 1010.3 hPa | 0 mm | - | - | - |
| 1777499400 | 30° C | 28% | 1010.4 hPa | 0 mm | - | - | - |
| 1777498800 | 29.44° C | 28% | 1010.5 hPa | 0 mm | - | - | - |
| 1777498200 | 30° C | 29% | 1010.5 hPa | 0 mm | - | - | - |
| 1777497616 | 30° C | 29% | 1010.5 hPa | 0 mm | - | - | - |
| 1777497000 | 29.44° C | 30% | 1010.7 hPa | 0 mm | - | - | - |
| 1777496400 | 30° C | 32% | 1010.7 hPa | 0 mm | - | - | - |
| 1777495800 | 30° C | 30% | 1010.9 hPa | 0 mm | - | - | - |
| 1777495200 | 30° C | 30% | 1011.2 hPa | 0 mm | - | - | - |
| 1777494600 | 30° C | 31% | 1011.2 hPa | 0 mm | - | - | - |
| 1777494000 | 30° C | 33% | 1011.5 hPa | 0 mm | - | - | - |
| 1777493400 | 30° C | 31% | 1011.6 hPa | 0 mm | - | - | - |
| 1777492800 | 30° C | 30% | 1012 hPa | 0 mm | - | - | - |
| 1777492200 | 30° C | 32% | 1012.2 hPa | 0 mm | - | - | - |
| 1777491600 | 30° C | 35% | 1012.3 hPa | 0 mm | - | - | - |
| 1777491000 | 30° C | 30% | 1012.5 hPa | 0 mm | - | - | - |
| 1777490400 | 30° C | 32% | 1012.6 hPa | 0 mm | - | - | - |
| 1777489800 | 30° C | 33% | 1012.8 hPa | 0 mm | - | - | - |
| 1777489200 | 30° C | 37% | 1012.9 hPa | 0 mm | - | - | - |
| 1777488600 | 30° C | 34% | 1013.1 hPa | 0 mm | - | - | - |
| 1777488000 | 30° C | 36% | 1013 hPa | 0 mm | - | - | - |
* Rain latest hour (hover to see other rain measurements)
** Current wind speed in m/s (hover to see current wind gust speed)